Vorticity
-4 9 -12 17 -3 21 16 25 -4 13 23 -11 0 5 6 -1 6 7 2 7 12 11
37 13 18 5 -14 46 0 31 41 -10 -4 17 -31 12 1 3 4 3 4 6 13 9
14 2 65 -1 -10 15 -9 -17 8 23 43 -8 20 7 4 0 4 3 -4 4 5 6
13 -7 36 15 16 -2 15 17 -15 43 -44 41 33 2 8 4 1 8 5 8 3 4
20 -15 -4 -9 10 -1 8 10 -1 -3 9 39 -40 7 10 4 -0 -6 15 19 -8 3
6 9 15 10 23 7 13 10 -7 23 9 2 54 -7 19 -3 4 0 1 -18 15 -4
5 8 4 17 14 7 -8 -13 21 -16 24 29 3 5 13 13 2 17 2 -1 5 -1
8 5 3 9 16 -1 25 10 19 24 -5 20 -19 23 14 7 -2 3 -2 6 -4 6
7 7 15 24 14 22 18 26 13 15 17 25 -23 29 20 8 12 3 5 23 18 28
12 17 8 -7 24 13 2 10 12 9 8 19 26 19 0 3 29 9 12 18 15 6
3 8 10 16 2 10 21 25 20 14 18 12 11 18 16 19 19 15 15 13 11 7
15 14 24 16 13 3 6 9 17 19 10 10 12 12 18 19 15 14 14 10 7 12
16 8 2 4 5 13 13 14 12 12 17 17 18 20 15 14 13 10 12 18 17 8
11 10 11 7 9 19 18 19 20 17 15 13 10 13 12 13 19 19 12 8 4 4
Height
3100 3107 3112 3116 3122 3124 3132 3134 3137 3144 3148 3152 3158 3161 3165 3167 3169 3172 3174 3175 3177 3179
3094 3100 3098 3107 3114 3110 3115 3127 3131 3133 3141 3143 3148 3154 3158 3161 3163 3166 3168 3170 3172 3174
3087 3091 3091 3100 3106 3110 3114 3118 3123 3128 3131 3136 3139 3144 3149 3153 3158 3160 3162 3164 3166 3167
3079 3084 3089 3095 3100 3102 3107 3112 3116 3121 3125 3128 3132 3137 3141 3145 3150 3153 3154 3156 3159 3160
3072 3077 3081 3088 3093 3096 3101 3106 3111 3113 3118 3119 3124 3129 3132 3135 3141 3145 3147 3149 3151 3153
3065 3070 3074 3079 3084 3088 3093 3097 3102 3106 3109 3113 3116 3119 3124 3128 3132 3136 3138 3141 3144 3145
3058 3063 3068 3071 3076 3080 3085 3090 3093 3097 3100 3104 3108 3110 3115 3119 3123 3127 3129 3132 3135 3137
3050 3054 3059 3063 3068 3072 3076 3081 3084 3088 3092 3094 3099 3103 3105 3108 3112 3116 3119 3123 3127 3129
3040 3045 3050 3054 3059 3064 3068 3073 3075 3080 3084 3089 3092 3093 3097 3100 3104 3108 3111 3115 3118 3120
3033 3038 3043 3047 3050 3055 3060 3062 3067 3071 3075 3078 3082 3086 3090 3093 3096 3099 3103 3107 3111 3113
3027 3031 3036 3040 3044 3047 3051 3054 3058 3062 3065 3069 3073 3077 3081 3085 3088 3092 3095 3100 3102 3105
3020 3025 3029 3033 3037 3040 3044 3047 3049 3053 3058 3061 3065 3069 3072 3077 3081 3085 3089 3092 3095 3098
3013 3018 3022 3025 3029 3033 3037 3040 3044 3048 3050 3054 3057 3062 3068 3072 3075 3078 3082 3085 3088 3093
3008 3011 3015 3019 3023 3027 3031 3035 3038 3042 3046 3050 3054 3058 3063 3067 3069 3073 3076 3079 3084 3089